CAPE
1168 1246 1184 957 574 217 87 50 142 268 574 473 470 412 359 345 459 466 637 826 638 504 654 563 743 806 893 1248 1315 1271 1068 1037 1001 805 1001 1230 1205 1201 1172 1275 763 912 987 717 937 578 406 90 14 4 0 0 0 0 0 0 0 0 0 0 0 0 0
1134 1003 734 461 385 211 154 200 225 197 430 616 455 462 365 249 236 275 481 592 679 636 546 602 895 1254 1588 1625 1517 1289 1130 1070 981 730 590 868 1061 1298 1254 1269 1087 883 833 847 954 808 343 9 5 8 33 5 0 0 0 0 0 0 0 0 0 0 0
998 738 550 454 389 283 214 246 208 227 216 226 271 435 290 143 183 158 204 576 640 454 238 704 884 1055 1393 1506 1626 1553 1354 1190 1140 1137 1046 921 1055 1497 1272 1235 1041 960 917 840 807 784 457 268 21 0 0 0 0 0 0 0 0 0 0 0 0 0 0
1170 856 606 454 291 180 74 97 127 82 195 106 126 253 295 141 109 72 201 580 704 516 233 158 243 211 596 774 994 1333 1564 1556 1343 1325 1183 995 982 809 923 885 989 908 994 889 808 730 641 430 60 0 0 0 0 0 0 0 0 0 0 0 0 0 0
1414 994 659 427 240 121 67 79 26 20 29 22 99 79 90 77 6 23 187 267 359 400 177 60 28 137 183 342 633 764 1010 1265 1434 1378 1410 1266 1130 1107 1091 978 974 960 904 923 792 575 384 244 65 24 2 0 0 0 0 0 0 0 0 0 0 0 0
1296 980 704 380 225 96 28 5 2 1 0 0 47 29 34 24 0 1 69 45 116 192 103 22 62 53 23 31 184 486 651 776 871 1164 1309 1434 1413 1166 1109 470 219 444 319 238 272 222 90 66 38 14 0 0 0 0 0 0 0 0 0 0 0 0 0
1381 1054 656 332 172 67 39 4 5 0 0 0 51 39 0 0 0 48 253 220 197 210 214 194 81 16 17 6 34 79 236 372 734 1042 1177 928 563 177 107 95 57 55 45 5 5 15 14 6 0 0 0 0 0 0 0 0 0 0 0 0 0 0 0
1211 912 582 295 262 162 71 4 0 0 0 0 0 0 0 0 5 88 65 53 52 67 83 64 7 5 4 0 5 11 16 15 40 63 160 140 109 28 18 1 0 0 0 0 0 0 0 0 0 0 0 0 0 0 0 0 0 0 0 0 0 0 0
902 701 461 170 164 142 78 28 0 0 0 0 0 0 0 0 0 0 0 0 0 0 1 1 0 0 1 0 0 0 0 0 4 7 7 15 20 2 0 0 0 0 0 0 0 0 0 0 0 0 0 0 0 0 0 0 0 0 0 0 0 0 0
1139 776 638 604 435 353 103 0 0 0 0 0 0 0 0 0 0 0 0 0 0 0 0 0 0 0 0 0 0 0 0 0 0 0 0 0 0 0 0 0 0 0 0 0 0 0 0 0 0 0 0 0 0 0 0 0 0 0 0 0 0 0 0
1134 947 951 874 556 380 153 0 0 0 0 0 0 0 0 0 0 0 0 0 0 0 0 0 0 0 0 0 0 0 0 0 0 0 0 0 0 0 0 0 0 0 0 0 0 0 0 0 0 0 0 0 0 0 0 0 0 0 0 0 0 0 0
1103 1150 1110 771 258 448 151 33 0 0 2 0 0 1 0 0 0 0 0 0 0 0 0 0 0 0 0 0 0 0 0 0 0 0 0 0 0 0 0 0 0 0 0 0 0 0 0 0 0 0 0 0 0 0 0 0 0 0 0 0 0 0 0
1042 1170 1012 941 681 490 99 41 0 0 6 0 0 0 0 0 0 0 0 0 0 0 0 0 0 0 0 0 0 0 0 0 0 0 0 0 0 0 0 0 0 0 0 0 0 0 0 0 0 0 0 0 0 0 0 0 0 0 0 0 0 0 0
1226 1022 804 921 684 589 73 14 26 6 0 4 0 0 0 0 0 0 0 0 0 0 0 0 0 0 0 0 0 0 0 0 0 0 0 0 0 0 0 0 0 0 0 0 0 0 0 0 0 0 0 0 0 0 0 0 0 0 0 0 0 0 0
1101 1056 1115 1030 1003 825 214 249 222 55 9 20 0 0 0 0 0 0 0 0 0 0 0 0 0 0 0 0 0 0 0 0 0 0 0 0 0 0 0 0 0 0 0 0 0 0 0 0 0 0 0 0 0 0 0 0 0 0 0 0 0 0 0
1022 1289 1145 992 1079 701 362 365 351 134 79 101 33 0 0 0 0 0 0 0 0 0 0 0 0 0 0 0 0 0 0 0 0 0 0 0 0 0 0 0 0 0 0 0 0 0 0 0 0 0 0 0 0 0 0 0 0 0 0 0 0 0 0
1076 1111 1134 1084 1141 815 412 64 281 271 202 104 4 61 1 0 0 0 0 0 0 0 0 0 0 0 0 1 3 0 0 0 0 0 0 0 0 0 0 0 0 0 0 0 0 0 0 0 0 0 0 0 0 0 0 0 0 0 0 0 0 0 0
1049 1044 911 743 934 895 506 48 272 331 376 205 57 46 18 0 0 0 2 0 0 0 0 0 0 0 0 0 0 0 0 0 0 0 0 0 0 0 0 0 0 0 0 0 0 0 0 0 0 0 0 0 0 0 0 0 0 0 0 0 0 0 0
960 995 900 788 800 759 762 607 429 420 434 395 337 164 64 72 32 48 17 0 0 2 0 1 0 0 0 0 0 5 5 3 0 0 0 0 0 0 0 0 0 0 0 0 0 0 0 0 0 0 0 0 0 0 0 0 0 0 0 0 0 0 0
916 923 854 756 782 753 785 756 651 480 436 546 596 469 302 208 194 196 57 72 76 86 90 72 74 39 16 21 42 62 64 60 51 27 6 0 0 0 0 0 0 0 0 0 0 0 0 0 0 0 0 0 0 0 0 0 0 0 0 0 0 0 0
1006 957 864 797 826 813 836 782 663 579 497 612 643 572 507 409 335 382 448 439 394 397 434 413 402 423 409 570 649 648 619 501 321 318 247 123 93 70 36 14 8 6 0 0 0 0 0 0 0 0 0 0 0 0 0 0 0 0 0 0 0 0 0
1022 1025 973 915 826 768 718 746 670 320 688 698 772 641 639 572 645 638 693 722 672 700 714 690 684 683 686 716 941 964 900 819 797 774 799 790 656 487 389 302 152 84 21 0 0 0 4 0 0 0 0 0 0 0 0 0 0 0 4 4 1 4 5
945 990 970 1067 859 733 671 741 834 857 927 865 972 890 814 780 792 841 913 845 903 990 995 982 735 352 468 686 820 816 911 808 681 795 893 857 911 920 756 703 501 127 139 42 0 0 0 0 0 1 0 0 0 2 2 0 0 3 1 2 3 0 1
761 874 922 777 707 702 728 846 984 1162 1073 977 1038 1140 1060 1097 1114 1061 872 984 906 822 751 727 0 0 0 0 283 586 713 823 922 916 824 1081 978 706 893 732 751 298 1 0 0 0 0 0 0 0 0 0 0 1 0 0 0 0 6 0 0 0 0
1009 969 993 971 769 815 943 991 905 1014 1088 1078 1283 1312 1092 957 862 894 794 842 829 718 906 217 0 0 0 0 91 334 616 724 772 785 833 901 773 648 630 579 972 766 428 156 86 142 72 0 23 38 37 30 31 22 2 0 0 0 0 0 1 2 0
1111 1151 1157 1061 985 824 805 1013 1083 1060 1094 1137 1110 809 907 819 780 905 904 784 874 963 946 2 0 0 0 0 0 174 517 541 623 896 827 868 656 147 488 942 1096 896 343 190 197 209 211 182 125 112 119 131 63 9 0 0 0 0 0 0 0 0 0
764 864 1024 1060 1090 956 878 827 1001 1009 944 941 890 895 894 818 740 816 902 926 757 739 643 104 0 0 0 0 0 93 568 490 845 936 925 680 517 716 984 692 663 615 429 241 328 309 242 174 137 123 104 28 0 0 0 0 0 0 0 0 0 0 0
129 400 681 696 919 1180 1192 1186 1056 1077 1053 1046 1041 1000 961 761 966 1084 1127 1020 856 601 64 40 17 28 17 3 0 12 581 499 531 333 428 708 560 480 469 562 535 329 243 130 56 92 105 19 0 0 0 0 0 0 0 0 0 0 1 0 0 0 0
0 51 294 535 712 940 1030 1028 1007 1124 1166 1208 1169 1184 1194 1201 1214 1167 1105 1022 888 673 690 42 14 18 37 33 24 98 522 389 351 130 132 341 488 392 301 424 459 238 206 198 226 211 170 0 0 0 0 0 0 0 0 0 0 0 0 0 0 0 0
0 0 39 328 444 553 849 975 967 993 1041 1094 1110 1048 1129 1178 1215 1253 1120 969 883 748 438 64 33 37 54 60 58 56 17 282 248 218 204 200 122 70 70 98 149 37 0 107 36 0 0 0 0 0 0 0 0 0 0 0 0 0 0 0 0 0 0
0 0 11 20 191 577 622 570 650 728 718 791 956 1057 1027 995 1018 1052 1045 976 648 943 240 113 32 54 77 59 40 31 32 27 19 89 35 4 0 0 0 0 0 0 0 0 0 0 0 0 0 0 0 0 0 0 0 0 0 0 0 0 0 0 0
0 0 0 2 116 280 473 462 379 487 608 694 1069 1242 956 982 953 775 735 770 521 565 337 74 18 278 89 72 42 48 35 14 60 21 0 0 0 0 0 0 0 0 0 0 0 0 0 0 0 0 0 0 0 0 0 0 0 0 0 0 0 0 0
0 0 0 0 0 116 306 301 317 262 264 292 571 846 798 924 926 810 533 566 349 622 344 228 269 160 130 60 6 329 70 47 25 4 0 0 0 0 0 0 0 0 0 0 0 0 0 0 0 0 0 0 2 8 0 0 0 0 0 0 0 0 0
0 0 0 0 0 0 77 227 203 148 164 157 283 516 647 1001 767 418 302 492 446 563 358 196 216 232 170 0 0 28 90 25 13 0 0 0 0 0 0 0 0 0 0 0 0 0 0 0 0 0 0 0 0 0 0 0 0 0 0 0 0 0 0
0 0 0 0 0 1 20 63 204 227 88 159 544 737 658 616 572 412 316 407 489 251 168 118 110 0 0 0 0 0 10 77 8 0 0 0 0 0 0 0 0 0 0 0 0 0 0 0 0 0 0 0 0 0 0 0 0 0 0 0 0 0 0
0 0 0 0 1 6 22 101 154 142 163 260 400 486 562 385 335 322 316 321 272 151 127 0 0 0 0 0 0 0 0 1 0 0 0 0 0 0 0 0 0 0 0 0 0 0 0 0 0 0 0 0 0 0 0 0 0 0 0 0 0 0 0
0 0 0 0 0 14 9 2 130 119 145 167 161 266 382 344 153 42 69 85 129 147 79 0 0 0 0 0 0 0 0 0 0 18 1 0 0 0 0 0 0 0 0 0 0 0 0 0 0 0 0 0 0 0 0 0 0 0 0 0 0 0 0
Wind_Speed
20 20 19 18 18 17 nan nan 16 17 17 19 19 21 23 25 25 23 22 21 20 20 17 17 17 18 19 21 21 20 20 20 21 18 19 20 18 20 18 18 17 17 17 17 16 20 21 nan nan nan nan nan nan nan nan nan nan nan nan nan nan nan nan
21 20 19 20 20 20 20 18 17 18 19 19 19 22 23 25 26 25 23 21 22 23 22 20 20 22 23 22 22 21 22 20 19 20 20 19 18 21 20 20 19 20 21 19 17 16 22 nan nan nan nan nan nan nan nan nan nan nan nan nan nan nan nan
21 21 21 22 23 23 24 23 22 21 22 21 21 22 24 26 26 26 25 24 23 24 25 25 22 21 21 21 22 22 23 24 22 20 20 21 20 22 18 21 20 22 22 21 19 18 21 20 nan nan nan nan nan nan nan nan nan nan nan nan nan nan nan
25 25 26 26 26 26 nan nan 26 nan 26 26 24 25 25 26 27 nan 26 26 25 25 26 25 23 22 20 21 22 23 24 24 24 24 23 23 22 22 20 21 21 21 22 21 20 19 19 21 nan nan nan nan nan nan nan nan nan nan nan nan nan nan nan
28 26 28 28 28 29 nan nan nan nan nan nan nan nan nan nan nan nan 26 26 26 25 25 nan nan 23 22 21 22 22 23 25 26 26 26 26 24 24 21 21 20 21 20 19 20 19 18 20 nan nan nan nan nan nan nan nan nan nan nan nan nan nan nan
28 28 29 29 28 nan nan nan nan nan nan nan nan nan nan nan nan nan nan nan 26 25 24 nan nan nan nan nan 23 24 24 25 26 27 27 27 26 26 23 24 22 23 23 22 21 20 nan nan nan nan nan nan nan nan nan nan nan nan nan nan nan nan nan
28 27 28 28 27 nan nan nan nan nan nan nan nan nan nan nan nan nan 25 26 26 25 24 23 nan nan nan nan nan nan 26 27 28 29 30 30 29 28 26 nan nan nan nan nan nan nan nan nan nan nan nan nan nan nan nan nan nan nan nan nan nan nan nan
26 25 24 25 26 28 nan nan nan nan nan nan nan nan nan nan nan nan nan nan nan nan nan nan nan nan nan nan nan nan nan nan nan nan 31 31 30 nan nan nan nan nan nan nan nan nan nan nan nan nan nan nan nan nan nan nan nan nan nan nan nan nan nan
24 23 23 24 27 30 nan nan nan nan nan nan nan nan nan nan nan nan nan nan nan nan nan nan nan nan nan nan nan nan nan nan nan nan nan nan nan nan nan nan nan nan nan nan nan nan nan nan nan nan nan nan nan nan nan nan nan nan nan nan nan nan nan
25 24 25 26 27 28 27 nan nan nan nan nan nan nan nan nan nan nan nan nan nan nan nan nan nan nan nan nan nan nan nan nan nan nan nan nan nan nan nan nan nan nan nan nan nan nan nan nan nan nan nan nan nan nan nan nan nan nan nan nan nan nan nan
22 24 24 26 25 22 23 nan nan nan nan nan nan nan nan nan nan nan nan nan nan nan nan nan nan nan nan nan nan nan nan nan nan nan nan nan nan nan nan nan nan nan nan nan nan nan nan nan nan nan nan nan nan nan nan nan nan nan nan nan nan nan nan
19 20 20 22 21 21 22 nan nan nan nan nan nan nan nan nan nan nan nan nan nan nan nan nan nan nan nan nan nan nan nan nan nan nan nan nan nan nan nan nan nan nan nan nan nan nan nan nan nan nan nan nan nan nan nan nan nan nan nan nan nan nan nan
17 17 18 17 17 19 nan nan nan nan nan nan nan nan nan nan nan nan nan nan nan nan nan nan nan nan nan nan nan nan nan nan nan nan nan nan nan nan nan nan nan nan nan nan nan nan nan nan nan nan nan nan nan nan nan nan nan nan nan nan nan nan nan
16 16 16 15 16 17 nan nan nan nan nan nan nan nan nan nan nan nan nan nan nan nan nan nan nan nan nan nan nan nan nan nan nan nan nan nan nan nan nan nan nan nan nan nan nan nan nan nan nan nan nan nan nan nan nan nan nan nan nan nan nan nan nan
15 15 16 15 16 17 18 17 18 nan nan nan nan nan nan nan nan nan nan nan nan nan nan nan nan nan nan nan nan nan nan nan nan nan nan nan nan nan nan nan nan nan nan nan nan nan nan nan nan nan nan nan nan nan nan nan nan nan nan nan nan nan nan
14 15 16 16 16 17 17 17 17 19 nan 17 nan nan nan nan nan nan nan nan nan nan nan nan nan nan nan nan nan nan nan nan nan nan nan nan nan nan nan nan nan nan nan nan nan nan nan nan nan nan nan nan nan nan nan nan nan nan nan nan nan nan nan
17 16 15 15 17 17 17 nan 17 18 19 17 nan nan nan nan nan nan nan nan nan nan nan nan nan nan nan nan nan nan nan nan nan nan nan nan nan nan nan nan nan nan nan nan nan nan nan nan nan nan nan nan nan nan nan nan nan nan nan nan nan nan nan
19 17 15 15 16 16 17 nan 17 17 18 19 nan nan nan nan nan nan nan nan nan nan nan nan nan nan nan nan nan nan nan nan nan nan nan nan nan nan nan nan nan nan nan nan nan nan nan nan nan nan nan nan nan nan nan nan nan nan nan nan nan nan nan
19 17 15 14 15 16 17 17 18 17 18 19 19 17 nan nan nan nan nan nan nan nan nan nan nan nan nan nan nan nan nan nan nan nan nan nan nan nan nan nan nan nan nan nan nan nan nan nan nan nan nan nan nan nan nan nan nan nan nan nan nan nan nan
17 16 15 16 17 18 18 18 18 18 18 19 20 19 17 18 19 22 nan nan nan nan nan nan nan nan nan nan nan nan nan nan nan nan nan nan nan nan nan nan nan nan nan nan nan nan nan nan nan nan nan nan nan nan nan nan nan nan nan nan nan nan nan
16 15 16 17 18 19 20 20 18 19 19 20 20 22 24 24 26 27 29 28 28 28 27 27 29 29 29 30 31 30 28 27 27 27 27 26 nan nan nan nan nan nan nan nan nan nan nan nan nan nan nan nan nan nan nan nan nan nan nan nan nan nan nan
19 17 18 18 19 20 21 21 20 21 23 24 25 26 28 30 32 32 33 33 32 30 29 28 28 29 30 30 30 30 29 27 28 28 27 27 27 26 25 24 24 nan nan nan nan nan nan nan nan nan nan nan nan nan nan nan nan nan nan nan nan nan nan
23 21 21 21 22 22 23 24 25 26 27 29 30 30 31 33 34 36 37 37 36 33 31 30 33 34 30 29 28 29 29 27 26 27 28 27 28 28 27 26 25 25 28 nan nan nan nan nan nan nan nan nan nan nan nan nan nan nan nan nan nan nan nan
29 27 27 26 27 27 27 28 29 29 30 31 33 35 35 37 37 37 37 39 38 35 33 33 nan nan nan nan 28 28 29 28 27 28 28 28 29 29 27 27 26 31 nan nan nan nan nan nan nan nan nan nan nan nan nan nan nan nan nan nan nan nan nan
32 32 32 31 31 30 31 31 31 32 33 33 36 37 37 37 38 37 36 36 38 38 36 41 nan nan nan nan nan 29 30 30 30 29 29 29 30 30 30 29 32 33 31 31 nan 33 nan nan nan nan nan nan nan nan nan nan nan nan nan nan nan nan nan
36 35 35 34 34 34 33 34 34 34 34 35 36 36 37 38 38 38 37 34 35 38 38 nan nan nan nan nan nan 32 32 31 31 31 29 29 32 30 27 33 36 36 38 43 33 34 38 42 46 47 47 48 nan nan nan nan nan nan nan nan nan nan nan
38 38 37 36 36 37 35 36 37 36 37 37 37 37 38 38 39 39 38 36 36 37 35 40 nan nan nan nan nan nan 35 34 33 32 30 31 31 31 35 37 36 38 40 37 34 36 39 42 43 44 43 nan nan nan nan nan nan nan nan nan nan nan nan
41 41 39 38 37 36 36 37 37 37 38 38 39 39 39 40 41 41 41 40 40 41 nan nan nan nan nan nan nan nan 38 36 34 33 33 37 38 38 38 38 36 38 40 39 nan nan 43 nan nan nan nan nan nan nan nan nan nan nan nan nan nan nan nan
nan nan 41 40 38 37 37 37 37 39 38 39 40 41 42 42 42 43 43 43 42 42 46 nan nan nan nan nan nan nan 38 37 35 37 41 41 41 41 40 40 41 43 44 46 49 48 45 nan nan nan nan nan nan nan nan nan nan nan nan nan nan nan nan
nan nan nan 41 40 41 41 41 41 42 42 42 42 43 43 43 44 44 45 45 44 44 49 nan nan nan nan nan nan nan nan 41 41 41 43 43 42 nan nan nan 44 nan nan 47 nan nan nan nan nan nan nan nan nan nan nan nan nan nan nan nan nan nan nan
nan nan nan nan 43 44 44 45 45 46 45 45 46 45 45 45 45 46 46 45 45 45 49 49 nan nan nan nan nan nan nan nan nan nan nan nan nan nan nan nan nan nan nan nan nan nan nan nan nan nan nan nan nan nan nan nan nan nan nan nan nan nan nan
nan nan nan nan 48 46 46 47 47 47 46 46 47 47 47 47 47 47 46 45 50 45 48 nan nan 44 nan nan nan nan nan nan nan nan nan nan nan nan nan nan nan nan nan nan nan nan nan nan nan nan nan nan nan nan nan nan nan nan nan nan nan nan nan
nan nan nan nan nan 50 49 48 49 47 47 46 48 48 48 47 48 45 45 42 45 43 48 49 48 46 43 nan nan 43 nan nan nan nan nan nan nan nan nan nan nan nan nan nan nan nan nan nan nan nan nan nan nan nan nan nan nan nan nan nan nan nan nan
nan nan nan nan nan nan nan 49 49 49 48 48 48 48 47 49 50 49 47 45 45 45 46 48 48 46 45 nan nan nan nan nan nan nan nan nan nan nan nan nan nan nan nan nan nan nan nan nan nan nan nan nan nan nan nan nan nan nan nan nan nan nan nan
nan nan nan nan nan nan nan nan 49 49 nan 49 50 50 48 49 49 49 49 47 47 49 52 51 49 nan nan nan nan nan nan nan nan nan nan nan nan nan nan nan nan nan nan nan nan nan nan nan nan nan nan nan nan nan nan nan nan nan nan nan nan nan nan
nan nan nan nan nan nan nan 52 51 49 47 47 48 48 50 51 52 51 49 48 49 50 51 nan nan nan nan nan nan nan nan nan nan nan nan nan nan nan nan nan nan nan nan nan nan nan nan nan nan nan nan nan nan nan nan nan nan nan nan nan nan nan nan
nan nan nan nan nan nan nan nan 53 51 49 47 47 47 49 53 54 nan nan nan 50 48 nan nan nan nan nan nan nan nan nan nan nan nan nan nan nan nan nan nan nan nan nan nan nan nan nan nan nan nan nan nan nan nan nan nan nan nan nan nan nan nan nan
Wind_Direction
287 286 287 282 279 281 nan nan 276 269 268 268 268 266 270 275 281 288 292 289 282 273 265 260 259 262 264 267 273 276 276 278 281 275 276 277 278 278 279 278 280 277 284 280 280 292 287 nan nan nan nan nan nan nan nan nan nan nan nan nan nan nan nan
286 287 285 284 283 281 283 281 274 270 269 266 268 272 272 273 278 282 285 287 284 277 270 262 258 256 257 263 270 273 277 278 282 284 287 283 280 278 283 283 283 283 284 284 282 277 286 nan nan nan nan nan nan nan nan nan nan nan nan nan nan nan nan
283 284 286 286 287 289 288 288 285 281 277 276 276 278 279 279 278 280 283 283 281 277 270 263 260 258 258 262 266 270 274 278 276 274 279 280 280 278 279 280 283 282 284 283 286 288 287 284 nan nan nan nan nan nan nan nan nan nan nan nan nan nan nan
286 286 288 290 290 292 nan nan 290 nan 283 280 281 284 284 284 282 nan 280 281 278 273 268 264 258 258 261 261 263 267 272 275 277 278 278 281 280 283 286 284 282 284 283 284 285 284 281 281 nan nan nan nan nan nan nan nan nan nan nan nan nan nan nan
285 285 289 291 294 295 nan nan nan nan nan nan nan nan nan nan nan nan 281 281 277 270 262 nan nan 260 260 262 265 267 268 272 274 278 279 280 281 282 283 276 274 274 272 273 275 277 278 277 nan nan nan nan nan nan nan nan nan nan nan nan nan nan nan
282 286 288 291 294 nan nan nan nan nan nan nan nan nan nan nan nan nan nan nan 277 269 259 nan nan nan nan nan 270 271 272 273 275 277 280 281 282 280 280 280 279 277 274 269 271 271 nan nan nan nan nan nan nan nan nan nan nan nan nan nan nan nan nan
281 287 290 293 296 nan nan nan nan nan nan nan nan nan nan nan nan nan 280 276 271 266 261 260 nan nan nan nan nan nan 275 274 275 277 277 279 278 277 276 nan nan nan nan nan nan nan nan nan nan nan nan nan nan nan nan nan nan nan nan nan nan nan nan
284 287 288 290 293 294 nan nan nan nan nan nan nan nan nan nan nan nan nan nan nan nan nan nan nan nan nan nan nan nan nan nan nan nan 278 278 276 nan nan nan nan nan nan nan nan nan nan nan nan nan nan nan nan nan nan nan nan nan nan nan nan nan nan
285 286 286 287 290 293 nan nan nan nan nan nan nan nan nan nan nan nan nan nan nan nan nan nan nan nan nan nan nan nan nan nan nan nan nan nan nan nan nan nan nan nan nan nan nan nan nan nan nan nan nan nan nan nan nan nan nan nan nan nan nan nan nan
287 288 286 290 294 299 300 nan nan nan nan nan nan nan nan nan nan nan nan nan nan nan nan nan nan nan nan nan nan nan nan nan nan nan nan nan nan nan nan nan nan nan nan nan nan nan nan nan nan nan nan nan nan nan nan nan nan nan nan nan nan nan nan
285 285 287 290 291 299 303 nan nan nan nan nan nan nan nan nan nan nan nan nan nan nan nan nan nan nan nan nan nan nan nan nan nan nan nan nan nan nan nan nan nan nan nan nan nan nan nan nan nan nan nan nan nan nan nan nan nan nan nan nan nan nan nan
285 286 288 292 299 301 302 nan nan nan nan nan nan nan nan nan nan nan nan nan nan nan nan nan nan nan nan nan nan nan nan nan nan nan nan nan nan nan nan nan nan nan nan nan nan nan nan nan nan nan nan nan nan nan nan nan nan nan nan nan nan nan nan
287 291 292 296 296 297 nan nan nan nan nan nan nan nan nan nan nan nan nan nan nan nan nan nan nan nan nan nan nan nan nan nan nan nan nan nan nan nan nan nan nan nan nan nan nan nan nan nan nan nan nan nan nan nan nan nan nan nan nan nan nan nan nan
280 283 287 293 295 296 nan nan nan nan nan nan nan nan nan nan nan nan nan nan nan nan nan nan nan nan nan nan nan nan nan nan nan nan nan nan nan nan nan nan nan nan nan nan nan nan nan nan nan nan nan nan nan nan nan nan nan nan nan nan nan nan nan
275 278 282 287 291 294 296 297 295 nan nan nan nan nan nan nan nan nan nan nan nan nan nan nan nan nan nan nan nan nan nan nan nan nan nan nan nan nan nan nan nan nan nan nan nan nan nan nan nan nan nan nan nan nan nan nan nan nan nan nan nan nan nan
278 276 279 281 284 288 292 293 295 297 nan 296 nan nan nan nan nan nan nan nan nan nan nan nan nan nan nan nan nan nan nan nan nan nan nan nan nan nan nan nan nan nan nan nan nan nan nan nan nan nan nan nan nan nan nan nan nan nan nan nan nan nan nan
275 275 277 278 281 285 289 nan 295 297 298 298 nan nan nan nan nan nan nan nan nan nan nan nan nan nan nan nan nan nan nan nan nan nan nan nan nan nan nan nan nan nan nan nan nan nan nan nan nan nan nan nan nan nan nan nan nan nan nan nan nan nan nan
275 274 271 269 278 282 286 nan 290 294 293 297 nan nan nan nan nan nan nan nan nan nan nan nan nan nan nan nan nan nan nan nan nan nan nan nan nan nan nan nan nan nan nan nan nan nan nan nan nan nan nan nan nan nan nan nan nan nan nan nan nan nan nan
274 273 268 263 268 274 278 282 285 285 289 293 295 297 nan nan nan nan nan nan nan nan nan nan nan nan nan nan nan nan nan nan nan nan nan nan nan nan nan nan nan nan nan nan nan nan nan nan nan nan nan nan nan nan nan nan nan nan nan nan nan nan nan
268 265 263 258 259 264 269 273 280 285 288 290 291 291 292 295 297 304 nan nan nan nan nan nan nan nan nan nan nan nan nan nan nan nan nan nan nan nan nan nan nan nan nan nan nan nan nan nan nan nan nan nan nan nan nan nan nan nan nan nan nan nan nan
259 262 258 259 260 261 264 269 275 281 286 291 293 294 294 295 296 299 300 301 299 295 292 290 289 286 281 273 267 264 262 261 262 264 265 264 nan nan nan nan nan nan nan nan nan nan nan nan nan nan nan nan nan nan nan nan nan nan nan nan nan nan nan
259 262 263 263 267 269 269 270 273 279 286 288 288 292 295 298 299 300 298 296 294 290 289 288 289 292 292 284 272 265 261 259 258 259 261 261 261 260 259 260 264 nan nan nan nan nan nan nan nan nan nan nan nan nan nan nan nan nan nan nan nan nan nan
268 268 268 270 271 271 272 273 275 279 283 284 285 286 288 292 295 296 296 294 290 287 286 285 280 277 278 283 277 266 261 258 257 255 255 255 257 260 259 261 266 269 268 nan nan nan nan nan nan nan nan nan nan nan nan nan nan nan nan nan nan nan nan
268 271 272 273 274 274 275 275 276 278 279 280 280 280 281 285 287 288 291 289 288 285 282 281 nan nan nan nan 278 268 257 253 253 254 253 254 255 257 263 267 265 272 nan nan nan nan nan nan nan nan nan nan nan nan nan nan nan nan nan nan nan nan nan
264 266 269 271 272 273 273 274 275 275 276 277 277 278 281 283 284 284 284 285 284 282 281 280 nan nan nan nan nan 273 260 250 248 247 247 249 252 255 258 261 263 264 267 268 nan 273 nan nan nan nan nan nan nan nan nan nan nan nan nan nan nan nan nan
262 265 268 269 270 270 272 273 273 274 275 275 275 277 279 280 281 282 281 281 280 279 277 nan nan nan nan nan nan 277 267 255 250 251 250 252 251 254 261 261 261 262 262 266 269 271 275 275 272 273 275 274 nan nan nan nan nan nan nan nan nan nan nan
264 266 267 268 270 271 271 272 272 272 272 273 274 274 275 276 277 278 279 277 277 276 275 279 nan nan nan nan nan nan 267 260 253 253 257 263 266 263 259 261 263 264 264 268 271 274 275 276 277 278 279 nan nan nan nan nan nan nan nan nan nan nan nan
268 268 268 269 270 271 272 273 275 275 275 275 273 272 271 272 272 274 274 274 274 276 nan nan nan nan nan nan nan nan 265 261 255 256 261 265 264 261 260 262 263 264 267 272 nan nan 277 nan nan nan nan nan nan nan nan nan nan nan nan nan nan nan nan
nan nan 271 272 272 272 274 276 277 278 277 275 274 272 270 270 271 272 272 272 271 273 270 nan nan nan nan nan nan nan 265 264 260 258 263 266 264 261 262 264 267 269 271 273 271 276 278 nan nan nan nan nan nan nan nan nan nan nan nan nan nan nan nan
nan nan nan 270 271 272 273 275 276 276 277 274 273 273 271 271 270 269 270 270 271 271 268 nan nan nan nan nan nan nan nan 263 260 260 261 260 259 nan nan nan 269 nan nan 271 nan nan nan nan nan nan nan nan nan nan nan nan nan nan nan nan nan nan nan
nan nan nan nan 270 270 271 272 274 275 274 272 271 272 272 271 269 268 268 269 270 268 267 269 nan nan nan nan nan nan nan nan nan nan nan nan nan nan nan nan nan nan nan nan nan nan nan nan nan nan nan nan nan nan nan nan nan nan nan nan nan nan nan
nan nan nan nan 268 269 271 271 271 272 271 270 270 271 271 270 269 268 267 268 263 266 266 nan nan 268 nan nan nan nan nan nan nan nan nan nan nan nan nan nan nan nan nan nan nan nan nan nan nan nan nan nan nan nan nan nan nan nan nan nan nan nan nan
nan nan nan nan nan 267 268 269 270 269 268 269 271 272 271 269 270 268 267 267 266 266 265 264 264 266 266 nan nan 257 nan nan nan nan nan nan nan nan nan nan nan nan nan nan nan nan nan nan nan nan nan nan nan nan nan nan nan nan nan nan nan nan nan
nan nan nan nan nan nan nan 267 268 268 267 267 267 269 270 270 270 267 266 267 268 267 263 263 262 265 265 nan nan nan nan nan nan nan nan nan nan nan nan nan nan nan nan nan nan nan nan nan nan nan nan nan nan nan nan nan nan nan nan nan nan nan nan
nan nan nan nan nan nan nan nan 267 266 nan 265 266 266 266 266 267 267 265 265 264 262 257 258 264 nan nan nan nan nan nan nan nan nan nan nan nan nan nan nan nan nan nan nan nan nan nan nan nan nan nan nan nan nan nan nan nan nan nan nan nan nan nan
nan nan nan nan nan nan nan 270 270 268 266 266 266 265 264 263 263 266 267 266 265 264 264 nan nan nan nan nan nan nan nan nan nan nan nan nan nan nan nan nan nan nan nan nan nan nan nan nan nan nan nan nan nan nan nan nan nan nan nan nan nan nan nan
nan nan nan nan nan nan nan nan 271 271 269 268 267 266 264 263 264 nan nan nan 264 264 nan nan nan nan nan nan nan nan nan nan nan nan nan nan nan nan nan nan nan nan nan nan nan nan nan nan nan nan nan nan nan nan nan nan nan nan nan nan nan nan nan